Location: Newark
(21.1200°N, 73.4000°E)
Time: 18:03:40
(UTC+00:00)

Courier 1B Rocket - Pass Details

Date: 20 January 2020
Orbit: 920 x 1202 km, 28.2° (Epoch: 22 February)

Event Time Altitude Azimuth Distance (km) Brightness Sun altitude
Rises 12:25:12 0° 290° (WNW) 3,586 8.7 4.2°
Reaches altitude 10° 12:27:53 10° 294° (WNW) 2,622 8.0 3.6°
Maximum altitude 12:34:03 59° 14° (NNE) 1,047 5.1 2.3°
Drops below altitude 10° 12:40:13 10° 93° (E) 2,620 6.7 1.0°
Sets 12:42:54 0° 97° (E) 3,583 7.4 0.4°
